Погода в Борках

Россия / Липецкая область     52°08′52″N   38°06′00″E
темп.,
°C
ветер,
м/с
пор.,
м/с
влажн.,
%
обл.,
%
осадки,
мм/ч
давл.,
гПа
погр.,
м
15 апреля, чт
чт1500:00+13вюв2254100 0.0 101529
03:00+12вюв3658100 0.0 101495
06:00+11в3670100 0.0 1013118
09:00+13ююв5869100 0.0 1014539
12:00+15ююв4958100 0.3 10131323
15:00+14юв4664100 1.3 1014692
18:00+14ююв3564100 1.6 1013527
21:00+12ююв356966 1.7 101490
16 апреля, пт
пт1600:00+11ююв267393 0.0 1014159
03:00+9ююв368232 0.0 1015122
06:00+8ююв348626 0.0 101669
09:00+12ююв46683 0.0 1016721
12:00+15ююв68465 0.0 10161635
15:00+16ююв683780 0.0 10162495
18:00+14ю464792 0.0 10161192
21:00+11ююв116177 0.0 101712
17 апреля, сб
сб1700:00+10вюв1164100 0.0 101812
03:00+8вюв4683100 0.8 1019263
06:00+7вюв0288100 4.5 1018159
09:00+6ссз2390100 10.1 1019179
12:00+8ссз2381100 1.3 1019554
15:00+10зсз2275100 1.3 1018768
18:00+10зсз2376100 0.6 1018338
21:00+8всв0184100 1.5 101930
18 апреля, вс
вс1800:00+7юз3687100 0.2 1019235
03:00+7юз4883100 0.4 1018326
06:00+7зюз3684100 0.1 1018335
09:00+8ююз346896 0.1 1018711
12:00+10ю555899 0.2 10181486
15:00+10юв226298 0.4 10191007
18:00+9св3374100 0.4 1019336
21:00+8св2281100 0.6 1019141
19 апреля, пн
пн1900:00+7в228398 0.1 101957
03:00+6юз1286100 0.3 101967
06:00+6вюв2591100 1.8 1020595
09:00+6всв3593100 7.2 1020300
12:00+8в248199 0.5 1020423
15:00+12всв345891 0.6 10191430
18:00+11св476886 0.6 1018700
21:00+8всв7139077 0.8 1018520